Time,TemperatureF,DewpointF,PressureIn,WindDirection,WindDirectionDegrees,WindSpeedMPH,WindSpeedGustMPH,Humidity,HourlyPrecipIn,Conditions,Clouds,dailyrainin,SoftwareType,DateUTC
2013-04-03 00:02:00,40.0,32.0,-100.00,NW,326,2.0,5.0,73,0.00,,,-99.99,,2013-04-03 06:02:00,
2013-04-03 00:12:00,38.0,31.0,-100.00,SSW,198,1.0,3.0,76,0.00,,,-99.99,,2013-04-03 06:12:00,
2013-04-03 00:22:00,36.0,31.0,-100.00,West,261,1.0,2.0,81,0.00,,,-99.99,,2013-04-03 06:22:00,
2013-04-03 00:32:00,36.0,31.0,-100.00,West,261,1.0,2.0,81,0.00,,,-99.99,,2013-04-03 06:32:00,
2013-04-03 00:42:00,36.0,31.0,-100.00,SW,230,3.0,6.0,80,0.00,,,-99.99,,2013-04-03 06:42:00,
2013-04-03 00:52:00,36.0,31.0,-100.00,WNW,284,1.0,2.0,81,0.00,,,-99.99,,2013-04-03 06:52:00,
2013-04-03 01:02:00,36.0,31.0,-100.00,WNW,284,1.0,2.0,81,0.00,,,-99.99,,2013-04-03 07:02:00,
2013-04-03 01:12:00,40.0,32.0,-100.00,NW,315,9.0,11.0,71,0.00,,,-99.99,,2013-04-03 07:12:00,
2013-04-03 01:23:00,40.0,32.0,-100.00,NW,315,9.0,11.0,71,0.00,,,-99.99,,2013-04-03 07:23:00,
2013-04-03 01:32:00,40.0,32.0,-100.00,NW,315,9.0,11.0,71,0.00,,,-99.99,,2013-04-03 07:32:00,
2013-04-03 01:42:00,40.0,31.0,-100.00,WSW,258,3.0,9.0,71,0.00,,,-99.99,,2013-04-03 07:42:00,
2013-04-03 01:53:00,38.0,31.0,-100.00,WNW,298,2.0,5.0,77,0.00,,,-99.99,,2013-04-03 07:53:00,
2013-04-03 02:02:00,38.0,31.0,-100.00,WNW,298,2.0,5.0,77,0.00,,,-99.99,,2013-04-03 08:02:00,
2013-04-03 02:12:00,38.0,31.0,-100.00,WNW,298,2.0,5.0,77,0.00,,,-99.99,,2013-04-03 08:12:00,
2013-04-03 02:22:00,37.0,31.0,-100.00,SSW,199,1.0,2.0,77,0.00,,,-99.99,,2013-04-03 08:22:00,
2013-04-03 02:32:00,37.0,31.0,-100.00,SSW,199,1.0,2.0,77,0.00,,,-99.99,,2013-04-03 08:32:00,
2013-04-03 02:42:00,37.0,31.0,-100.00,SE,134,2.0,4.0,77,0.00,,,-99.99,,2013-04-03 08:42:00,
2013-04-03 02:52:00,37.0,31.0,-100.00,SE,133,1.0,4.0,78,0.00,,,-99.99,,2013-04-03 08:52:00,
2013-04-03 03:02:00,37.0,31.0,-100.00,SE,133,1.0,4.0,78,0.00,,,-99.99,,2013-04-03 09:02:00,
2013-04-03 03:12:00,37.0,33.0,-100.00,NW,308,4.0,7.0,84,0.00,,,-99.99,,2013-04-03 09:12:00,
2013-04-03 03:22:00,37.0,33.0,-100.00,NW,308,4.0,7.0,84,0.00,,,-99.99,,2013-04-03 09:22:00,
2013-04-03 03:32:00,37.0,33.0,-100.00,NW,308,4.0,7.0,84,0.00,,,-99.99,,2013-04-03 09:32:00,
2013-04-03 03:42:00,36.0,32.0,-100.00,WNW,284,2.0,3.0,85,0.00,,,-99.99,,2013-04-03 09:42:00,
2013-04-03 03:53:00,36.0,32.0,-100.00,WNW,284,2.0,3.0,85,0.00,,,-99.99,,2013-04-03 09:53:00,
2013-04-03 04:02:00,36.0,32.0,-100.00,WNW,284,2.0,3.0,85,0.00,,,-99.99,,2013-04-03 10:02:00,
2013-04-03 04:12:00,36.0,33.0,-100.00,South,189,2.0,4.0,87,0.00,,,-99.99,,2013-04-03 10:12:00,
2013-04-03 04:22:00,36.0,33.0,-100.00,South,189,2.0,4.0,87,0.00,,,-99.99,,2013-04-03 10:22:00,
2013-04-03 04:33:00,36.0,33.0,-100.00,South,189,2.0,4.0,87,0.00,,,-99.99,,2013-04-03 10:33:00,
2013-04-03 04:42:00,37.0,33.0,-100.00,SSW,209,2.0,4.0,84,0.00,,,-99.99,,2013-04-03 10:42:00,
2013-04-03 04:53:00,37.0,33.0,-100.00,WNW,302,3.0,6.0,86,0.00,,,-99.99,,2013-04-03 10:53:00,
2013-04-03 05:02:00,37.0,33.0,-100.00,WNW,302,3.0,6.0,86,0.00,,,-99.99,,2013-04-03 11:02:00,
2013-04-03 05:12:00,37.0,33.0,-100.00,WNW,302,3.0,6.0,86,0.00,,,-99.99,,2013-04-03 11:12:00,
2013-04-03 05:22:00,36.0,33.0,-100.00,SSW,193,1.0,4.0,88,0.00,,,-99.99,,2013-04-03 11:22:00,
2013-04-03 05:32:00,36.0,33.0,-100.00,SSW,193,1.0,4.0,88,0.00,,,-99.99,,2013-04-03 11:32:00,
2013-04-03 05:42:00,36.0,33.0,-100.00,SW,219,3.0,5.0,89,0.00,,,-99.99,,2013-04-03 11:42:00,
2013-04-03 05:53:00,36.0,33.0,-100.00,SW,219,3.0,5.0,89,0.00,,,-99.99,,2013-04-03 11:53:00,
2013-04-03 06:02:00,36.0,33.0,-100.00,SW,219,3.0,5.0,89,0.00,,,-99.99,,2013-04-03 12:02:00,
2013-04-03 06:12:00,37.0,32.0,-100.00,SSE,168,2.0,4.0,84,0.00,,,-99.99,,2013-04-03 12:12:00,
2013-04-03 06:22:00,37.0,33.0,-100.00,South,191,2.0,3.0,87,0.00,,,-99.99,,2013-04-03 12:22:00,
2013-04-03 06:32:00,37.0,33.0,-100.00,South,191,2.0,3.0,87,0.00,,,-99.99,,2013-04-03 12:32:00,
2013-04-03 06:42:00,36.0,33.0,-100.00,SW,224,2.0,4.0,90,0.00,,,-99.99,,2013-04-03 12:42:00,
2013-04-03 06:52:00,36.0,33.0,-100.00,SW,224,2.0,4.0,90,0.00,,,-99.99,,2013-04-03 12:52:00,
2013-04-03 07:02:00,36.0,33.0,-100.00,SW,224,2.0,4.0,90,0.00,,,-99.99,,2013-04-03 13:02:00,
2013-04-03 07:12:00,35.0,33.0,-100.00,SE,136,1.0,3.0,91,0.00,,,-99.99,,2013-04-03 13:12:00,
2013-04-03 07:22:00,35.0,33.0,-100.00,SE,136,1.0,3.0,91,0.00,,,-99.99,,2013-04-03 13:22:00,
2013-04-03 07:32:00,35.0,33.0,-100.00,SE,136,1.0,3.0,91,0.00,,,-99.99,,2013-04-03 13:32:00,
2013-04-03 07:42:00,34.0,33.0,-100.00,NNW,340,2.0,2.0,93,0.00,,,-99.99,,2013-04-03 13:42:00,
2013-04-03 07:52:00,35.0,33.0,-100.00,SSW,206,1.0,5.0,91,0.00,,,-99.99,,2013-04-03 13:52:00,
2013-04-03 08:02:00,35.0,33.0,-100.00,SSW,206,1.0,5.0,91,0.00,,,-99.99,,2013-04-03 14:02:00,
2013-04-03 08:12:00,36.0,33.0,-100.00,South,185,2.0,3.0,89,0.00,,,-99.99,,2013-04-03 14:12:00,
2013-04-03 08:22:00,36.0,33.0,-100.00,South,185,2.0,3.0,89,0.00,,,-99.99,,2013-04-03 14:22:00,
2013-04-03 08:32:00,36.0,33.0,-100.00,South,185,2.0,3.0,89,0.00,,,-99.99,,2013-04-03 14:32:00,
2013-04-03 08:42:00,38.0,32.0,-100.00,SSW,200,3.0,5.0,81,0.00,,,-99.99,,2013-04-03 14:42:00,
2013-04-03 08:52:00,38.0,32.0,-100.00,SSW,200,3.0,5.0,81,0.00,,,-99.99,,2013-04-03 14:52:00,
2013-04-03 09:02:00,38.0,32.0,-100.00,SSW,200,3.0,5.0,81,0.00,,,-99.99,,2013-04-03 15:02:00,
2013-04-03 09:12:00,40.0,32.0,-100.00,SSW,193,2.0,3.0,73,0.00,,,-99.99,,2013-04-03 15:12:00,
2013-04-03 09:22:00,40.0,32.0,-100.00,SSW,193,2.0,3.0,73,0.00,,,-99.99,,2013-04-03 15:22:00,
2013-04-03 09:33:00,40.0,32.0,-100.00,SSW,193,2.0,3.0,73,0.00,,,-99.99,,2013-04-03 15:33:00,
2013-04-03 09:42:00,40.0,32.0,-100.00,ESE,119,4.0,6.0,74,0.00,,,-99.99,,2013-04-03 15:42:00,
2013-04-03 09:53:00,40.0,32.0,-100.00,ESE,117,6.0,9.0,72,0.00,,,-99.99,,2013-04-03 15:53:00,
2013-04-03 10:03:00,40.0,32.0,-100.00,ESE,117,6.0,9.0,72,0.00,,,-99.99,,2013-04-03 16:03:00,
2013-04-03 10:12:00,41.0,32.0,-100.00,SSE,150,5.0,7.0,69,0.00,,,-99.99,,2013-04-03 16:12:00,
2013-04-03 10:23:00,41.0,32.0,-100.00,SSE,150,5.0,7.0,69,0.00,,,-99.99,,2013-04-03 16:23:00,
2013-04-03 10:32:00,41.0,32.0,-100.00,SSE,150,5.0,7.0,69,0.00,,,-99.99,,2013-04-03 16:32:00,
2013-04-03 10:43:00,41.0,32.0,-100.00,SE,136,8.0,10.0,68,0.00,,,-99.99,,2013-04-03 16:43:00,
2013-04-03 10:52:00,42.0,31.0,-100.00,SSE,152,5.0,9.0,64,0.00,,,-99.99,,2013-04-03 16:52:00,
2013-04-03 11:02:00,42.0,31.0,-100.00,SSE,152,5.0,9.0,64,0.00,,,-99.99,,2013-04-03 17:02:00,
2013-04-03 11:13:00,41.0,30.0,-100.00,SE,126,5.0,8.0,64,0.00,,,-99.99,,2013-04-03 17:13:00,
2013-04-03 11:22:00,41.0,30.0,-100.00,SE,126,5.0,8.0,64,0.00,,,-99.99,,2013-04-03 17:22:00,
2013-04-03 11:32:00,41.0,30.0,-100.00,SE,126,5.0,8.0,64,0.00,,,-99.99,,2013-04-03 17:32:00,
2013-04-03 11:45:00,42.0,31.0,-100.00,SSE,164,3.0,7.0,65,0.00,,,-99.99,,2013-04-03 17:45:00,
2013-04-03 11:53:00,41.0,30.0,-100.00,SSE,147,5.0,7.0,65,0.00,,,-99.99,,2013-04-03 17:53:00,
2013-04-03 12:02:00,41.0,30.0,-100.00,SSE,147,5.0,7.0,65,0.00,,,-99.99,,2013-04-03 18:02:00,
2013-04-03 12:12:00,42.0,31.0,-100.00,SSE,165,2.0,4.0,64,0.00,,,-99.99,,2013-04-03 18:12:00,
2013-04-03 12:22:00,43.0,30.0,-100.00,ESE,119,5.0,8.0,59,0.00,,,-99.99,,2013-04-03 18:22:00,
2013-04-03 12:33:00,43.0,30.0,-100.00,ESE,119,5.0,8.0,59,0.00,,,-99.99,,2013-04-03 18:33:00,
2013-04-03 12:42:00,44.0,29.0,-100.00,SE,143,3.0,6.0,56,0.00,,,-99.99,,2013-04-03 18:42:00,
2013-04-03 12:52:00,43.0,30.0,-100.00,SE,124,7.0,9.0,60,0.00,,,-99.99,,2013-04-03 18:52:00,
2013-04-03 13:02:00,43.0,30.0,-100.00,SE,124,7.0,9.0,60,0.00,,,-99.99,,2013-04-03 19:02:00,
2013-04-03 13:12:00,43.0,30.0,-100.00,South,179,3.0,6.0,60,0.00,,,-99.99,,2013-04-03 19:12:00,
2013-04-03 13:22:00,46.0,31.0,-100.00,West,275,1.0,3.0,56,0.00,,,-99.99,,2013-04-03 19:22:00,
2013-04-03 13:32:00,46.0,31.0,-100.00,West,275,1.0,3.0,56,0.00,,,-99.99,,2013-04-03 19:32:00,
2013-04-03 13:42:00,46.0,30.0,-100.00,SSW,206,2.0,4.0,53,0.00,,,-99.99,,2013-04-03 19:42:00,
2013-04-03 13:52:00,44.0,30.0,-100.00,SE,131,6.0,7.0,56,0.00,,,-99.99,,2013-04-03 19:52:00,
2013-04-03 14:02:00,44.0,30.0,-100.00,SE,131,6.0,7.0,56,0.00,,,-99.99,,2013-04-03 20:02:00,
2013-04-03 14:12:00,44.0,31.0,-100.00,SSE,158,4.0,8.0,59,0.00,,,-99.99,,2013-04-03 20:12:00,
2013-04-03 14:22:00,44.0,31.0,-100.00,SSE,158,4.0,8.0,59,0.00,,,-99.99,,2013-04-03 20:22:00,
2013-04-03 14:32:00,44.0,31.0,-100.00,SSE,158,4.0,8.0,59,0.00,,,-99.99,,2013-04-03 20:32:00,
2013-04-03 14:42:00,45.0,30.0,-100.00,SE,133,5.0,7.0,57,0.00,,,-99.99,,2013-04-03 20:42:00,
2013-04-03 14:53:00,46.0,30.0,-100.00,SSE,150,4.0,6.0,53,0.00,,,-99.99,,2013-04-03 20:53:00,
2013-04-03 15:02:00,46.0,30.0,-100.00,SSE,150,4.0,6.0,53,0.00,,,-99.99,,2013-04-03 21:02:00,
2013-04-03 15:12:00,46.0,30.0,-100.00,NW,319,2.0,3.0,54,0.00,,,-99.99,,2013-04-03 21:12:00,
2013-04-03 15:22:00,47.0,30.0,-100.00,East,96,4.0,7.0,52,0.00,,,-99.99,,2013-04-03 21:22:00,
2013-04-03 15:32:00,47.0,30.0,-100.00,East,96,4.0,7.0,52,0.00,,,-99.99,,2013-04-03 21:32:00,
2013-04-03 15:42:00,48.0,29.0,-100.00,SSE,148,5.0,9.0,49,0.00,,,-99.99,,2013-04-03 21:42:00,
2013-04-03 15:52:00,47.0,29.0,-100.00,ESE,121,7.0,10.0,50,0.00,,,-99.99,,2013-04-03 21:52:00,
2013-04-03 16:02:00,47.0,29.0,-100.00,ESE,121,7.0,10.0,50,0.00,,,-99.99,,2013-04-03 22:02:00,
2013-04-03 16:12:00,49.0,30.0,-100.00,NNE,25,2.0,3.0,47,0.00,,,-99.99,,2013-04-03 22:12:00,
2013-04-03 16:22:00,48.0,29.0,-100.00,SW,236,1.0,3.0,48,0.00,,,-99.99,,2013-04-03 22:22:00,
2013-04-03 16:32:00,48.0,29.0,-100.00,SW,236,1.0,3.0,48,0.00,,,-99.99,,2013-04-03 22:32:00,
2013-04-03 16:42:00,53.0,29.0,-100.00,WSW,237,2.0,4.0,39,0.00,,,-99.99,,2013-04-03 22:42:00,
2013-04-03 16:52:00,49.0,27.0,-100.00,SE,128,6.0,8.0,43,0.00,,,-99.99,,2013-04-03 22:52:00,
2013-04-03 17:02:00,49.0,27.0,-100.00,SE,128,6.0,8.0,43,0.00,,,-99.99,,2013-04-03 23:02:00,
2013-04-03 17:12:00,50.0,26.0,-100.00,SE,138,3.0,5.0,40,0.00,,,-99.99,,2013-04-03 23:12:00,
2013-04-03 17:22:00,50.0,26.0,-100.00,SE,138,3.0,5.0,40,0.00,,,-99.99,,2013-04-03 23:22:00,
2013-04-03 17:32:00,50.0,26.0,-100.00,SE,138,3.0,5.0,40,0.00,,,-99.99,,2013-04-03 23:32:00,
2013-04-03 17:42:00,51.0,25.0,-100.00,SSE,148,7.0,12.0,36,0.00,,,-99.99,,2013-04-03 23:42:00,
2013-04-03 17:54:00,50.0,28.0,-100.00,SW,215,3.0,7.0,42,0.00,,,-99.99,,2013-04-03 23:54:00,
2013-04-03 18:02:00,50.0,28.0,-100.00,SW,215,3.0,7.0,42,0.00,,,-99.99,,2013-04-04 00:02:00,
2013-04-03 18:12:00,50.0,26.0,-100.00,ESE,102,4.0,8.0,38,0.00,,,-99.99,,2013-04-04 00:12:00,
2013-04-03 18:22:00,50.0,26.0,-100.00,SSE,148,6.0,10.0,38,0.00,,,-99.99,,2013-04-04 00:22:00,
2013-04-03 18:32:00,50.0,26.0,-100.00,SSE,148,6.0,10.0,38,0.00,,,-99.99,,2013-04-04 00:32:00,
2013-04-03 18:43:00,48.0,27.0,-100.00,SSW,198,5.0,8.0,44,0.00,,,-99.99,,2013-04-04 00:43:00,
2013-04-03 18:52:00,49.0,27.0,-100.00,South,181,2.0,4.0,42,0.00,,,-99.99,,2013-04-04 00:52:00,
2013-04-03 19:02:00,49.0,27.0,-100.00,South,181,2.0,4.0,42,0.00,,,-99.99,,2013-04-04 01:02:00,
2013-04-03 19:11:00,49.0,28.0,-100.00,South,175,2.0,4.0,43,0.00,,,-99.99,,2013-04-04 01:11:00,
2013-04-03 19:22:00,48.0,24.0,-100.00,SE,131,4.0,8.0,38,0.00,,,-99.99,,2013-04-04 01:22:00,
2013-04-03 19:32:00,48.0,24.0,-100.00,SE,131,4.0,8.0,38,0.00,,,-99.99,,2013-04-04 01:32:00,
2013-04-03 19:43:00,48.0,25.0,-100.00,WSW,237,2.0,4.0,41,0.00,,,-99.99,,2013-04-04 01:43:00,
2013-04-03 19:52:00,47.0,25.0,-100.00,SSE,160,4.0,7.0,42,0.00,,,-99.99,,2013-04-04 01:52:00,
2013-04-03 20:02:00,47.0,25.0,-100.00,SSE,160,4.0,7.0,42,0.00,,,-99.99,,2013-04-04 02:02:00,
2013-04-03 20:12:00,47.0,26.0,-100.00,SW,234,0.0,1.0,44,0.00,,,-99.99,,2013-04-04 02:12:00,
2013-04-03 20:22:00,42.0,31.0,-100.00,NNW,328,2.0,2.0,63,0.00,,,-99.99,,2013-04-04 02:22:00,
2013-04-03 20:32:00,42.0,31.0,-100.00,NNW,328,2.0,2.0,63,0.00,,,-99.99,,2013-04-04 02:32:00,
2013-04-03 20:42:00,42.0,31.0,-100.00,NNW,328,2.0,2.0,63,0.00,,,-99.99,,2013-04-04 02:42:00,
2013-04-03 21:02:00,39.0,28.0,-100.00,West,280,0.0,1.0,64,0.00,,,-99.99,,2013-04-04 03:02:00,
2013-04-03 21:11:00,38.0,28.0,-100.00,WNW,296,1.0,2.0,67,0.00,,,-99.99,,2013-04-04 03:11:00,
2013-04-03 21:22:00,37.0,28.0,-100.00,WSW,256,1.0,2.0,69,0.00,,,-99.99,,2013-04-04 03:22:00,
2013-04-03 21:33:00,37.0,28.0,-100.00,WSW,256,1.0,2.0,69,0.00,,,-99.99,,2013-04-04 03:33:00,
2013-04-03 21:43:00,37.0,29.0,-100.00,WNW,298,1.0,2.0,72,0.00,,,-99.99,,2013-04-04 03:43:00,
2013-04-03 21:53:00,37.0,29.0,-100.00,WNW,298,1.0,2.0,72,0.00,,,-99.99,,2013-04-04 03:53:00,
2013-04-03 22:02:00,37.0,29.0,-100.00,WNW,298,1.0,2.0,72,0.00,,,-99.99,,2013-04-04 04:02:00,
2013-04-03 22:12:00,36.0,29.0,-100.00,WNW,298,0.0,1.0,74,0.00,,,-99.99,,2013-04-04 04:12:00,
2013-04-03 22:22:00,37.0,29.0,-100.00,West,271,0.0,3.0,72,0.00,,,-99.99,,2013-04-04 04:22:00,
2013-04-03 22:33:00,37.0,29.0,-100.00,West,271,0.0,3.0,72,0.00,,,-99.99,,2013-04-04 04:33:00,
2013-04-03 22:42:00,37.0,29.0,-100.00,WSW,250,0.0,1.0,73,0.00,,,-99.99,,2013-04-04 04:42:00,
2013-04-03 22:53:00,37.0,30.0,-100.00,WSW,250,0.0,2.0,75,0.00,,,-99.99,,2013-04-04 04:53:00,
2013-04-03 23:02:00,37.0,30.0,-100.00,WSW,250,0.0,2.0,75,0.00,,,-99.99,,2013-04-04 05:02:00,
2013-04-03 23:12:00,38.0,30.0,-100.00,WSW,247,1.0,3.0,71,0.00,,,-99.99,,2013-04-04 05:12:00,
2013-04-03 23:22:00,38.0,30.0,-100.00,South,169,1.0,3.0,72,0.00,,,-99.99,,2013-04-04 05:22:00,
2013-04-03 23:32:00,38.0,30.0,-100.00,South,169,1.0,3.0,72,0.00,,,-99.99,,2013-04-04 05:32:00,
2013-04-03 23:42:00,39.0,30.0,-100.00,WNW,291,1.0,2.0,71,0.00,,,-99.99,,2013-04-04 05:42:00,
2013-04-03 23:52:00,41.0,30.0,-100.00,WSW,253,1.0,2.0,65,0.00,,,-99.99,,2013-04-04 05:52:00,